Retour au catalogue

STARLINK-34664

ActifCommunicationsVLEO
NORAD 64806·PAYLOAD·🇺🇸 United States

Lancé Jul 16, 2025 depuis Vandenberg Space Force Base

Loading…

Prochains Passages (prochaines 24 heures)

TLE

FraisSource: CelesTrak SupGP

Époque: Sep 14, 2026, 22:59 UTC

1 64806C 25150S   26257.95812500 -.00052683  00000+0 -44153-2 0  2570
2 64806  70.0028  17.0480 0003094 271.7963  33.6156 14.98355114    10

Suivez STARLINK-34664 en temps réel avec AllMySat

Download on the App Store